Regional Weather Roundup
Issued by NWS Little Rock, AR

Home | Current Version | Previous Version | Graphics & Text | Print | Product List | Glossary On
Versions: 1 2 3 4 5 6 7 8 9 10 11 12 13 14 15 16 17 18 19 20 21 22 23 24 25 26 27 28 29 30 31 32 33 34 35 36 37 38 39 40 41 42 43 44 45 46 47 48 49 50
000
ASUS44 KLZK 290905
RWRLZK

WEATHER ROUNDUP FOR ARKANSAS
NATIONAL WEATHER SERVICE LITTLE ROCK AR
400 AM CDT FRI AUG 29 2014

NOTE: "FAIR" INDICATES FEW OR NO CLOUDS BELOW 12,000 FEET WITH NO
SIGNIFICANT WEATHER AND/OR OBSTRUCTIONS TO VISIBILITY.

ARZ001-003-010-029-291000-
NORTHWEST ARKANSAS

CITY           SKY/WX    TMP DP  RH WIND       PRES   REMARKS
FAYETTEVILLE   MOCLDY    69  66  90 CALM      29.92F
FORT SMITH     MOCLDY    75  69  81 E7        29.89S
HARRISON       CLEAR     70  65  84 SE5       29.96S
BENTONVILLE    PTCLDY    72  64  78 SE7       29.93F
ROGERS         MOCLDY    73  64  73 E9        29.93F
SILOAM SPGS    CLEAR     72  61  68 SE6       29.92F
HIGHFILL       PTCLDY    72  65  78 E5        29.92F
$$

ARZ004-005-016-291000-
NORTH CENTRAL ARKANSAS

CITY           SKY/WX    TMP DP  RH WIND       PRES   REMARKS
BATESVILLE     CLEAR     70  64  83 CALM      29.94F
FLIPPIN        CLEAR     68  59  73 CALM      29.94F
MTN HOME       PTCLDY    71  61  70 SE3       29.94F
$$

ARZ040-041-291000-
WEST CENTRAL ARKANSAS

CITY           SKY/WX    TMP DP  RH WIND       PRES   REMARKS
MENA           MOCLDY    77  72  83 CALM      29.96S
MOUNT IDA      MOCLDY    77  69  76 VRB5      29.92F
$$

ARZ009-017-025-026-028-291000-
NORTHEAST ARKANSAS

CITY           SKY/WX    TMP DP  RH WIND       PRES   REMARKS
CORNING          N/A     73  73 100 SW3       29.94F FOG
JONESBORO      CLEAR     72  69  90 CALM      29.94F
NEWPORT        CLEAR     72  68  87 SE3       29.94F
WALNUT RIDGE   PTCLDY    73  64  73 NE5       29.94S
BLYTHEVILLE    PTCLDY    74  72  93 CALM      29.95S
$$

ARZ022-023-033-042-044-291000-
CENTRAL ARKANSAS

CITY           SKY/WX    TMP DP  RH WIND       PRES   REMARKS
LITTLE ROCK    PTCLDY    73  67  81 CALM      29.93F
N LITTLE ROCK    N/A     75  69  81 SW6       29.93F
JACKSONVILLE   MOCLDY    69  68  96 NE3       29.93F
SEARCY         CLEAR     69  67  93 CALM      29.94F
HOT SPRINGS      N/A    N/A N/A N/A MISG        N/A
RUSSELLVILLE   CLOUDY    73  67  81 CALM      29.92S
CLINTON        FAIR      70  66  88 CALM      29.94F
$$

ARZ036-291000-
EAST ARKANSAS

CITY           SKY/WX    TMP DP  RH WIND       PRES   REMARKS
WEST MEMPHIS   CLEAR     72  71  97 CALM      29.93F
$$

ARZ050-053-066-070-073-291000-
SOUTHWEST ARKANSAS

CITY           SKY/WX    TMP DP  RH WIND       PRES   REMARKS
ARKADELPHIA    LGT RAIN  76  73  90 CALM      29.93F
CAMDEN         CLOUDY    73  70  88 CALM      29.92F
TEXARKANA      MOCLDY    74  73  97 CALM      29.92F
EL DORADO      PTCLDY    73  72  96 CALM      29.93F
DE QUEEN       PTCLDY    73  71  93 CALM      29.91R
$$

ARZ056-057-069-291000-
SOUTHEAST ARKANSAS

CITY           SKY/WX    TMP DP  RH WIND       PRES   REMARKS
PINE BLUFF     PTCLDY    70  67  90 CALM      29.93F
STUTTGART      PTCLDY    73  66  78 SE5       29.94S
MONTICELLO     PTCLDY    77  70  79 CALM      29.94S

$$





USA.gov is the U.S. government's official web portal to all federal, state and local government web resources and services.